• MPC Preparation (Info)

  • MPEC 2014-V22 : 2014 UD206

    The following Minor Planet Electronic Circular may be linked-to from your own Web pages, but must not otherwise be redistributed electronically.

    A form allowing access to any MPEC is at the bottom of this page.


    Read MPEC 2014-V21 Read MPEC 2014-V23


    M.P.E.C. 2014-V22                                Issued 2014 Nov. 4, 14:09 UT
    
         The Minor Planet Electronic Circulars contain information on unusual
             minor planets and routine data on comets.  They are published
       on behalf of Commission 20 of the International Astronomical Union by the
              Minor Planet Center, Smithsonian Astrophysical Observatory,
                              Cambridge, MA 02138, U.S.A.
    
                 Prepared using the Tamkin Foundation Computer Network
    
                                  MPC@CFA.HARVARD.EDU
                URL https://www.minorplanetcenter.net/    ISSN 1523-6714
    
                                      2014 UD206
    
    Observations:
         K14UK6D* C2014 10 31.41511 04 52 06.23 +30 05 34.8          20.9 VqEV022G96
         K14UK6D  C2014 10 31.41970 04 52 05.89 +30 05 36.5          20.9 VqEV022G96
         K14UK6D  C2014 10 31.42429 04 52 05.54 +30 05 37.2          20.7 VqEV022G96
         K14UK6D  C2014 10 31.42888 04 52 05.14 +30 05 38.7                qEV022G96
         K14UK6D  C2014 10 31.45234 04 52 03.40 +30 05 44.8          21.0 VqEV022G96
         K14UK6D  C2014 10 31.45647 04 52 03.07 +30 05 46.2          20.9 VqEV022G96
         K14UK6D  C2014 10 31.45697 04 52 03.01 +30 05 46.3          20.8 VqEV022G96
         K14UK6D  C2014 10 31.50257 04 51 59.60 +30 05 57.9          20.7 VqEV022G96
         K14UK6D  C2014 10 31.50365 04 51 59.47 +30 05 58.5          21.0 VqEV022G96
         K14UK6D  C2014 10 31.50474 04 51 59.39 +30 05 58.8          21.3 VqEV022G96
         K14UK6D  C2014 11 01.39248 04 50 54.49 +30 09 54.5          21.2 VqEV022G96
         K14UK6D  C2014 11 01.39495 04 50 54.33 +30 09 54.9          20.9 VqEV022G96
         K14UK6D KC2014 11 02.31208104 49 44.64 +30 13 45.9          22.0 VuEV022H21
         K14UK6D KC2014 11 02.32234904 49 43.80 +30 13 48.4          21.8 VuEV022H21
         K14UK6D KC2014 11 02.33288904 49 42.95 +30 13 51.2          21.8 VuEV022H21
         K14UK6D HC2014 11 03.28308 04 48 28.76 +30 17 40.1          20.8 RoEV022291
         K14UK6D HC2014 11 03.29789 04 48 27.48 +30 17 43.9          20.7 RoEV022291
         K14UK6D HC2014 11 03.33003 04 48 24.89 +30 17 51.8          21.8 RoEV022291
         K14UK6D  C2014 11 04.23545 04 47 11.99 +30 21 13.8                qEV022G96
         K14UK6D  C2014 11 04.24513 04 47 11.00 +30 21 18.1          21.5 VqEV022G96
         K14UK6D  C2014 11 04.24998 04 47 10.59 +30 21 20.0                qEV022G96
         K14UK6D KC2014 11 04.33758 04 47 03.05 +30 21 40.5          21.3 RoEV022291
         K14UK6D KC2014 11 04.34652 04 47 02.29 +30 21 42.6          21.3 RoEV022291
    
    Observer details:
    291 LPL/Spacewatch II.  Observer R. A. Mastaler.  1.8-m f/2.7 reflector + CCD.
    G96 Mt. Lemmon Survey.  Observers A. R. Gibbs, R. A. Kowalski, R. E. Hill.
        Measurers E. J. Christensen, A. R. Gibbs, A. D. Grauer, R. E. Hill,
        J. A. Johnson, R. A. Kowalski, S. M. Larson, F. C. Shelly.  1.5-m
        reflector + CCD.
    H21 Astronomical Research Observatory, Westfield.  Observer R. Holmes.
        Measurers L. Buzzi, S. Foglia, T. Vorobjov, T. Linder.  1.3-m f/4.0
        astrograph + CCD.
    
    Orbital elements:
    2014 UD206                                               Earth MOID = 0.2226 AU
    Epoch 2014 Dec. 9.0 TT = JDT 2457000.5                  MPC
    M  54.23421              (2000.0)            P               Q
    n   0.30975125     Peri.  304.12838     +0.80532969     +0.59164337
    a   2.1633527      Node    19.68112     -0.50070240     +0.71264239
    e   0.4406638      Incl.    6.38374     -0.31739753     +0.37696014
    P   3.18           H   19.3           G   0.15           U   8
    Residuals in seconds of arc
    141031 G96  0.1+  0.3-    141031 G96  0.2-  0.3+    141103 291  0.7-  0.1+
    141031 G96  0.3+  0.2+    141031 G96  0.2-  0.3+    141103 291  0.5+  0.1+
    141031 G96  0.2+  0.3-    141101 G96  0.2-  0.1+    141104 G96  2.3+  2.1-
    141031 G96  0.4-  0.1-    141101 G96  0.2+  0.2-    141104 G96  0.0   0.2-
    141031 G96  0.2+  0.2-    141102 H21  0.0   0.1-    141104 G96  0.1+  0.5+
    141031 G96  0.0   0.2+    141102 H21  0.1-  0.2-    141104 291  0.6-  0.4+
    141031 G96  0.3-  0.1+    141102 H21  0.0   0.0     141104 291  0.4-  0.5+
    141031 G96  0.4+  0.0     141103 291  0.0   0.0
    
    Ephemeris:
    2014 UD206               a,e,i = 2.16, 0.44, 6                   q = 1.2100
    Date    TT    R. A. (2000) Decl.     Delta      r     Elong.  Phase     V
    2014 10 05    05 04 41.9 +27 17 19   0.9252  1.6126   113.7    34.6    21.6
    ...
    2014 10 20    05 02 25.9 +29 02 29   0.8872  1.6980   128.7    27.3    21.4
    ...
    2014 10 28    04 55 55.5 +29 48 59   0.8752  1.7439   137.8    22.5    21.3
    ...
    2014 11 03    04 48 50.9 +30 16 34   0.8723  1.7783   145.0    18.7    21.2
    2014 11 04    04 47 30.6 +30 20 25   0.8724  1.7841   146.2    18.0    21.2
    2014 11 05    04 46 07.9 +30 24 03   0.8727  1.7898   147.4    17.4    21.2
    ...
    2014 11 11    04 37 07.8 +30 40 33   0.8787  1.8241   154.8    13.3    21.1
    ...
    2014 11 19    04 23 51.8 +30 47 34   0.8989  1.8697   164.3     8.2    21.0
    ...
    2014 12 04    03 59 44.8 +30 17 59   0.9794  1.9540   167.9     6.1    21.2
    
    A. U. Tomatic                (C) Copyright 2014 MPC           M.P.E.C. 2014-V22
    

    Read MPEC 2014-V21 Read MPEC 2014-V23


    MPEC number:

    Enter an MPEC number in one of the following forms:

    • 1997-B01 (the full form)
    • J97B01 (the packed version of the full form)
    • B01 (the abbreviated form)